| time (UTC) | temp C | wind direction | speed KPH | gust KPH | rain 1hr cm | rain 24hr cm | rain mn cm | humidity % | barometer mb |
| 20260510043018 | 8 | 177 | 0.0 | 0.0 | 0.00 | 0.00 | 0.00 | 79 | 1013.2 |
| 20260510041517 | 8 | 177 | 0.0 | 0.0 | 0.00 | 0.00 | 0.00 | 79 | 1013.1 |
| 20260510040014 | 8 | 177 | 0.0 | 0.0 | 0.00 | 0.00 | 0.00 | 79 | 1013.1 |
| 20260510034528 | 9 | 177 | 0.0 | 0.0 | 0.00 | 0.00 | 0.00 | 78 | 1013.3 |
| 20260510033029 | 9 | 177 | 0.0 | 0.0 | 0.00 | 0.00 | 0.00 | 77 | 1013.2 |
| 20260510031525 | 10 | 177 | 0.0 | 0.0 | 0.00 | 0.00 | 0.00 | 76 | 1013.1 |
| 20260510030021 | 10 | 177 | 0.0 | 3.2 | 0.00 | 0.00 | 0.00 | 74 | 1013.0 |
| 20260510024522 | 11 | 177 | 0.0 | 3.2 | 0.00 | 0.00 | 0.00 | 73 | 1012.7 |
| 20260510023016 | 11 | 177 | 0.0 | 3.2 | 0.00 | 0.00 | 0.00 | 72 | 1012.4 |
| 20260510021529 | 11 | 177 | 0.0 | 0.0 | 0.00 | 0.00 | 0.00 | 73 | 1012.3 |
| 20260510020028 | 12 | 177 | 0.0 | 0.0 | 0.00 | 0.00 | 0.00 | 73 | 1012.2 |
| 20260510014504 | 13 | 177 | 0.0 | 3.2 | 0.00 | 0.00 | 0.00 | 68 | 1011.9 |
| 20260510013005 | 13 | 182 | 1.6 | 4.8 | 0.00 | 0.00 | 0.00 | 71 | 1011.4 |
| 20260510011506 | 13 | 209 | 0.0 | 3.2 | 0.00 | 0.00 | 0.00 | 73 | 1011.2 |
| 20260510010004 | 15 | 209 | 0.0 | 3.2 | 0.00 | 0.00 | 0.00 | 70 | 1011.1 |
| 20260510004505 | 16 | 254 | 0.0 | 1.6 | 0.00 | 0.00 | 0.00 | 65 | 1010.8 |
| 20260510003004 | 17 | 329 | 0.0 | 3.2 | 0.00 | 0.00 | 0.00 | 62 | 1010.4 |
| 20260510001507 | 18 | 329 | 0.0 | 0.0 | 0.00 | 0.00 | 0.00 | 58 | 1010.2 |
| 20260510000008 | 19 | 329 | 0.0 | 3.2 | 0.00 | 0.00 | 0.00 | 55 | 1009.8 |
| 20260509234508 | 20 | 215 | 3.2 | 6.4 | 0.00 | 0.00 | 0.00 | 52 | 1009.6 |
| 20260509233007 | 20 | 275 | 3.2 | 8.0 | 0.00 | 0.00 | 0.00 | 52 | 1009.7 |
| 20260509231507 | 20 | 221 | 4.8 | 16.1 | 0.00 | 0.00 | 0.00 | 52 | 1009.6 |
| 20260509230006 | 21 | 190 | 4.8 | 8.0 | 0.00 | 0.00 | 0.00 | 51 | 1009.6 |
| 20260509224508 | 21 | 209 | 6.4 | 16.1 | 0.00 | 0.00 | 0.00 | 49 | 1009.6 |
| 20260509223011 | 22 | 188 | 8.0 | 16.1 | 0.00 | 0.00 | 0.00 | 47 | 1009.6 |
| 20260509221524 | 21 | 245 | 6.4 | 11.3 | 0.00 | 0.00 | 0.00 | 48 | 1009.7 |
| 20260509220006 | 21 | 233 | 6.4 | 12.9 | 0.00 | 0.00 | 0.00 | 46 | 1009.6 |
| 20260509214509 | 22 | 217 | 6.4 | 16.1 | 0.00 | 0.00 | 0.00 | 47 | 1009.5 |
| 20260509213010 | 21 | 214 | 8.0 | 16.1 | 0.00 | 0.00 | 0.00 | 47 | 1009.6 |
| 20260509211510 | 21 | 221 | 6.4 | 14.5 | 0.00 | 0.00 | 0.00 | 47 | 1009.5 |
| 20260509210014 | 23 | 275 | 9.7 | 20.9 | 0.00 | 0.00 | 0.00 | 45 | 1009.3 |
| 20260509204512 | 23 | 222 | 9.7 | 22.5 | 0.00 | 0.00 | 0.00 | 43 | 1009.3 |
| 20260509203012 | 23 | 294 | 4.8 | 20.9 | 0.00 | 0.00 | 0.00 | 44 | 1009.1 |
| 20260509201512 | 23 | 233 | 9.7 | 19.3 | 0.00 | 0.00 | 0.00 | 42 | 1009.1 |
| 20260509200013 | 23 | 284 | 9.7 | 20.9 | 0.00 | 0.00 | 0.00 | 43 | 1009.1 |
| 20260509194516 | 23 | 257 | 9.7 | 19.3 | 0.00 | 0.00 | 0.00 | 43 | 1009.2 |
| 20260509193016 | 23 | 207 | 6.4 | 19.3 | 0.00 | 0.00 | 0.00 | 44 | 1009.5 |
| 20260509191516 | 22 | 237 | 12.9 | 22.5 | 0.00 | 0.00 | 0.00 | 47 | 1009.6 |
| 20260509190022 | 22 | 202 | 9.7 | 20.9 | 0.00 | 0.00 | 0.00 | 42 | 1009.8 |
| 20260509184526 | 21 | 205 | 4.8 | 17.7 | 0.00 | 0.00 | 0.00 | 46 | 1009.8 |
| 20260509183025 | 21 | 265 | 8.0 | 14.5 | 0.00 | 0.00 | 0.00 | 44 | 1010.0 |
| 20260509181518 | 21 | 254 | 4.8 | 17.7 | 0.00 | 0.00 | 0.00 | 43 | 1010.0 |
| 20260509180016 | 21 | 213 | 4.8 | 16.1 | 0.00 | 0.00 | 0.00 | 46 | 1010.2 |
| 20260509174522 | 20 | 276 | 4.8 | 6.4 | 0.00 | 0.00 | 0.00 | 50 | 1010.6 |
| 20260509173019 | 20 | 170 | 1.6 | 16.1 | 0.00 | 0.00 | 0.00 | 48 | 1010.7 |
| 20260509171514 | 20 | 248 | 8.0 | 17.7 | 0.00 | 0.00 | 0.00 | 46 | 1011.0 |
| 20260509170028 | 20 | 189 | 4.8 | 14.5 | 0.00 | 0.00 | 0.00 | 52 | 1011.1 |
| 20260509164510 | 20 | 221 | 8.0 | 14.5 | 0.00 | 0.00 | 0.00 | 50 | 1011.0 |
| 20260509163007 | 19 | 240 | 6.4 | 14.5 | 0.00 | 0.00 | 0.00 | 52 | 1011.2 |
| 20260509161504 | 20 | 270 | 8.0 | 16.1 | 0.00 | 0.00 | 0.00 | 52 | 1011.1 |
| 20260509160004 | 19 | 215 | 8.0 | 12.9 | 0.00 | 0.00 | 0.00 | 51 | 1011.1 |
| 20260509154520 | 19 | 252 | 8.0 | 19.3 | 0.00 | 0.00 | 0.00 | 53 | 1011.2 |
| 20260509153016 | 18 | 217 | 6.4 | 16.1 | 0.00 | 0.00 | 0.00 | 54 | 1011.3 |
| 20260509151515 | 18 | 207 | 8.0 | 16.1 | 0.00 | 0.00 | 0.00 | 55 | 1011.3 |
| 20260509150010 | 17 | 268 | 9.7 | 17.7 | 0.00 | 0.00 | 0.00 | 56 | 1011.3 |
| 20260509144509 | 17 | 231 | 4.8 | 14.5 | 0.00 | 0.00 | 0.00 | 56 | 1011.3 |
| 20260509143005 | 17 | 215 | 9.7 | 16.1 | 0.00 | 0.00 | 0.00 | 57 | 1011.3 |
| 20260509141530 | 17 | 283 | 8.0 | 12.9 | 0.00 | 0.00 | 0.00 | 58 | 1011.1 |
| 20260509140030 | 16 | 235 | 4.8 | 11.3 | 0.00 | 0.00 | 0.00 | 61 | 1011.5 |
| 20260509134520 | 15 | 221 | 4.8 | 9.7 | 0.00 | 0.00 | 0.00 | 61 | 1011.9 |
| 20260509133017 | 15 | 252 | 3.2 | 6.4 | 0.00 | 0.00 | 0.00 | 61 | 1012.1 |
| 20260509131516 | 15 | 281 | 3.2 | 8.0 | 0.00 | 0.00 | 0.00 | 64 | 1012.4 |
| 20260509130010 | 14 | 271 | 4.8 | 9.7 | 0.00 | 0.00 | 0.00 | 64 | 1012.2 |
| 20260509124507 | 13 | 238 | 0.0 | 0.0 | 0.00 | 0.00 | 0.00 | 69 | 1012.3 |
| 20260509123029 | 13 | 235 | 0.0 | 0.0 | 0.00 | 0.00 | 0.00 | 68 | 1012.3 |
| 20260509121523 | 12 | 235 | 0.0 | 0.0 | 0.00 | 0.00 | 0.00 | 75 | 1012.2 |
| 20260509120021 | 11 | 235 | 0.0 | 0.0 | 0.00 | 0.00 | 0.00 | 74 | 1012.4 |
| 20260509114514 | 10 | 235 | 0.0 | 0.0 | 0.00 | 0.00 | 0.00 | 76 | 1012.3 |
| 20260509113014 | 10 | 235 | 0.0 | 0.0 | 0.00 | 0.00 | 0.00 | 77 | 1012.2 |
| 20260509111508 | 10 | 235 | 0.0 | 0.0 | 0.00 | 0.00 | 0.00 | 72 | 1012.2 |
| 20260509110027 | 9 | 235 | 0.0 | 0.0 | 0.00 | 0.00 | 0.00 | 73 | 1012.1 |
| 20260509104524 | 9 | 235 | 0.0 | 0.0 | 0.00 | 0.00 | 0.00 | 75 | 1012.1 |
| 20260509103025 | 8 | 235 | 0.0 | 0.0 | 0.00 | 0.00 | 0.00 | 74 | 1012.2 |
| 20260509101522 | 8 | 235 | 0.0 | 0.0 | 0.00 | 0.00 | 0.00 | 73 | 1012.3 |
| 20260509100020 | 8 | 235 | 0.0 | 0.0 | 0.00 | 0.00 | 0.00 | 72 | 1012.2 |
| 20260509094515 | 8 | 235 | 0.0 | 0.0 | 0.00 | 0.00 | 0.00 | 73 | 1012.1 |
| 20260509093027 | 8 | 256 | 0.0 | 0.0 | 0.00 | 0.00 | 0.00 | 71 | 1012.3 |
| 20260509091525 | 8 | 256 | 0.0 | 0.0 | 0.00 | 0.00 | 0.00 | 69 | 1012.4 |
| 20260509090028 | 9 | 256 | 0.0 | 3.2 | 0.00 | 0.00 | 0.00 | 67 | 1012.5 |
| 20260509084524 | 10 | 34 | 0.0 | 0.0 | 0.00 | 0.00 | 0.00 | 63 | 1012.3 |
| 20260509083021 | 11 | 34 | 0.0 | 0.0 | 0.00 | 0.00 | 0.00 | 60 | 1012.4 |
| 20260509081534 | 11 | 34 | 0.0 | 1.6 | 0.00 | 0.00 | 0.00 | 60 | 1012.4 |
| 20260509080014 | 12 | 36 | 0.0 | 1.6 | 0.00 | 0.00 | 0.00 | 58 | 1012.5 |
| 20260509074512 | 12 | 61 | 0.0 | 3.2 | 0.00 | 0.00 | 0.00 | 53 | 1012.6 |
| 20260509073005 | 13 | 191 | 0.0 | 4.8 | 0.00 | 0.00 | 0.00 | 51 | 1012.8 |
| 20260509071504 | 13 | 223 | 1.6 | 8.0 | 0.00 | 0.00 | 0.00 | 50 | 1012.9 |
| 20260509070004 | 13 | 174 | 0.0 | 6.4 | 0.00 | 0.00 | 0.00 | 48 | 1013.1 |
| 20260509064522 | 13 | 216 | 3.2 | 11.3 | 0.00 | 0.00 | 0.00 | 48 | 1013.0 |
| 20260509063017 | 13 | 182 | 3.2 | 8.0 | 0.00 | 0.00 | 0.00 | 48 | 1013.3 |
| 20260509061513 | 12 | 245 | 4.8 | 9.7 | 0.00 | 0.00 | 0.00 | 50 | 1013.4 |
| 20260509060012 | 12 | 217 | 0.0 | 4.8 | 0.00 | 0.00 | 0.00 | 52 | 1013.4 |
| 20260509054520 | 12 | 217 | 0.0 | 3.2 | 0.00 | 0.00 | 0.00 | 52 | 1013.6 |
| 20260509053008 | 12 | 247 | 0.0 | 3.2 | 0.00 | 0.00 | 0.00 | 52 | 1013.7 |
| 20260509051504 | 12 | 217 | 0.0 | 4.8 | 0.00 | 0.00 | 0.00 | 52 | 1013.8 |
| 20260509050036 | 12 | 218 | 1.6 | 8.0 | 0.00 | 0.00 | 0.00 | 52 | 1013.7 |
| 20260509044519 | 12 | 215 | 3.2 | 6.4 | 0.00 | 0.00 | 0.00 | 51 | 1013.6 |